MDT,Max TemperatureF,Mean TemperatureF,Min TemperatureF,Max Dew PointF,MeanDew PointF,Min DewpointF,Max Humidity, Mean Humidity, Min Humidity, Max Sea Level PressureIn, Mean Sea Level PressureIn, Min Sea Level PressureIn, Max VisibilityMiles, Mean VisibilityMiles, Min VisibilityMiles, Max Wind SpeedMPH, Mean Wind SpeedMPH, Max Gust SpeedMPH,PrecipitationIn, CloudCover, Events, WindDirDegrees
2013-4-1,52,40,28,28,25,22,84,57,31,30.24,30.18,30.11,10,10,10,17,6,23,0.00,2,Thunderstorm,116
2013-4-2,53,40,26,33,29,22,88,63,39,30.18,30.16,30.12,10,10,5,17,6,23,0.00,0,,210
2013-4-3,58,43,29,34,29,26,95,61,30,30.19,30.13,30.06,10,10,7,22,9,29,0.00,1,,207
2013-4-4,66,46,27,33,31,25,92,57,28,30.16,30.09,30.01,10,10,7,10,5,22,0.01,1,,117
2013-4-5,79,58,39,37,31,26,74,38,15,30.01,29.79,29.62,10,10,10,34,8,48,0.00,1,,220
2013-4-6,70,58,46,40,30,22,68,39,16,29.84,29.80,29.70,10,10,10,31,18,38,0.00,2,,313
2013-4-7,70,56,42,45,34,29,83,49,22,29.82,29.72,29.62,10,10,10,14,5,25,0.04,5,Rain,262
2013-4-8,74,53,32,42,34,28,92,58,18,29.75,29.63,29.51,10,9,2,41,12,54,0.45,3,Rain-Snow-Thunderstorm,78
2013-4-9,22,19,16,16,13,11,85,82,76,30.18,30.05,29.87,10,2,0,40,29,50,0.00,8,Snow,359
2013-4-10,28,22,17,21,17,13,87,76,69,30.12,30.04,29.91,10,9,2,31,22,41,0.01,8,Snow,341
2013-4-11,36,26,17,28,22,14,88,77,65,29.91,29.80,29.74,10,10,7,21,11,25,0.00,6,Snow,319
2013-4-12,47,38,30,36,31,26,93,77,56,30.02,29.93,29.86,10,10,10,21,8,26,0.00,3,Rain,309
2013-4-13,65,46,26,44,36,25,95,72,37,30.01,29.67,29.36,10,9,2,22,6,30,0.00,2,,146
2013-4-14,52,42,34,44,29,16,80,55,28,29.75,29.56,29.36,10,10,10,38,21,47,0.00,3,Rain,311
2013-4-15,44,36,27,28,21,17,92,59,38,30.09,29.91,29.75,10,9,1,20,11,26,0.00,4,Snow,356
2013-4-16,37,33,29,33,29,28,94,87,75,30.14,30.09,30.01,10,7,1,20,7,24,0.15,8,Snow,91
2013-4-17,32,31,28,33,28,23,96,90,80,30.09,30.03,29.96,10,7,1,29,17,33,0.00,8,Snow,32
2013-4-18,34,29,25,23,21,18,89,73,57,30.10,30.05,30.02,10,10,5,29,22,34,0.00,5,Snow,332
2013-4-19,54,38,23,33,28,21,89,64,37,30.05,29.99,29.96,10,10,10,22,10,30,0.00,2,,309
2013-4-20,59,44,30,34,30,27,91,62,29,30.01,29.97,29.91,10,10,10,16,7,23,0.00,3,,130
2013-4-21,64,48,32,41,36,30,94,61,31,30.06,30.01,29.96,10,10,10,22,7,25,0.00,2,,18
2013-4-22,45,36,26,41,30,18,95,80,62,30.35,30.12,29.93,10,8,1,33,17,38,0.01,8,Rain-Thunderstorm,48
2013-4-23,43,32,20,21,16,12,80,55,29,30.33,30.22,30.12,10,10,10,16,11,26,0.00,4,,345
2013-4-24,57,37,18,27,19,12,90,53,19,30.21,30.14,30.10,10,10,10,28,9,37,0.00,1,,293
2013-4-25,72,48,23,28,23,19,84,43,14,30.20,30.01,29.86,10,10,10,18,5,26,0.00,0,,236
2013-4-26,74,53,32,29,22,18,68,34,12,30.18,30.08,29.93,10,10,10,17,6,28,0.00,0,,14
2013-4-27,81,56,33,33,25,16,79,33,9,30.18,30.03,29.91,10,10,10,15,4,22,0.00,0,,284
2013-4-28,84,60,37,34,29,25,69,35,12,29.91,29.84,29.79,10,10,10,23,10,28,0.00,0,,329
2013-4-29,84,66,47,37,33,26,65,34,12,29.91,29.70,29.51,10,10,10,22,7,32,0.00,1,,217
2013-4-30,64,52,41,39,31,21,76,45,23,30.03,29.80,29.54,10,10,10,32,12,39,0.00,1,Thunderstorm,29